Location: Miles
(41.4492°N, 81.6087°W)
Time: 07:18:19
(UTC+00:00)

Transit 2A - Pass Details

Date: 14 September 2024
Orbit: 590 x 960 km, 66.7° (Epoch: 09 October)

Event Time Altitude Azimuth Distance (km) Brightness Sun altitude
Rises 01:46:57 0° 251° (WSW) 3,455 10.0 -23.9°
Reaches altitude 10° 01:49:54 10° 266° (W) 2,573 9.5 -24.4°
Maximum altitude 01:54:39 23° 318° (NW) 1,858 8.6 -25.1°
Drops below altitude 10° 01:59:36 10° 9° (N) 2,691 9.0 -25.9°
Sets 02:02:47 0° 24° (NNE) 3,650 9.6 -26.4°
